Location: Arran
(51.9410°N, 101.7372°W)
Time: 08:05:10
(UTC+00:00)

SWISSCUBE - Pass Details

Date: 20 May 2025
Orbit: 685 x 693 km, 98.4° (Epoch: 20 June)

Event Time Altitude Azimuth Distance (km) Brightness Sun altitude
Rises 05:53:23 0° 15° (NNE) 3,078 ? -17.2°
Reaches altitude 10° 05:55:39 10° 16° (NNE) 2,157 ? -17.3°
Maximum altitude 06:00:23 87° 108° (ESE) 701 ? -17.4°
Enters shadow 06:02:44 30° 194° (SSW) 1,233 ? -17.5°
